Weather History for Baker, MT

Change the Weather History Date:

Sunday, November 18, 2012

  Actual Average Record
Temperature  
Mean Temperature 44 °F -  
Max Temperature 57 °F 24 °F 60 °F (2008)
Min Temperature 30 °F 20 °F 0 °F (2014)
Degree Days  
Heating Degree Days 22    
Moisture  
Dew Point 29 °F    
Average Humidity 67    
Maximum Humidity 78    
Minimum Humidity 44    
Precipitation  
Precipitation 0.00 in - - ()
Sea Level Pressure  
Sea Level Pressure 29.90 in    
Wind  
Wind Speed 8 mph (West)    
Max Wind Speed 15 mph    
Max Gust Speed -    
Visibility 10 miles    
Events      
Averages and records for this station are not official NWS values.
T = Trace of Precipitation, MM = Missing Value Source: NWS Daily Summary

Daily Weather History Graph

Daily Weather History Graph

Search for Another Location

Airport:

Trip Planner

Search our weather history database for the weather conditions in past years. The results will help you decide how hot, cold, wet, or windy it might be!

Date:

Astronomy

Nov. 18, 2012 Rise Set
Actual Time 7:03 AM MST 4:20 PM MST
Civil Twilight 6:30 AM MST 4:53 PM MST
Nautical Twilight 5:53 AM MST 5:30 PM MST
Astronomical Twilight 5:18 AM MST 6:06 PM MST
Moon 11:28 AM MST (11/18) 9:48 PM MST (11/18)
Length of Visible Light 10h 23m
Length of Day
9h 17m
Waxing Crescent, 31% of the Moon is Illuminated
Nov 18
Waxing Crescent
Nov 20
First Quarter
Nov 28
Full
Dec 6
Last Quarter
Dec 13
New

Hourly Weather History & Observations

Time (MST) Temp. Windchill Dew Point Humidity Pressure Visibility Wind Dir Wind Speed Gust Speed Precip Events Conditions
12:51 AM 32.0 °F 24.8 °F 24.1 °F 73% 29.89 in 10.0 mi SE 8.1 mph - N/A   Clear
1:51 AM 33.1 °F 23.4 °F 24.1 °F 70% 29.86 in 10.0 mi SE 13.8 mph - N/A   Clear
2:51 AM 32.0 °F 22.1 °F 24.1 °F 73% 29.84 in 10.0 mi SE 13.8 mph - N/A   Clear
4:51 AM 32.0 °F 28.7 °F 25.0 °F 75% 29.84 in 10.0 mi ESE 3.5 mph - N/A   Clear
5:51 AM 30.9 °F 25.2 °F 24.1 °F 76% 29.84 in 10.0 mi SE 5.8 mph - N/A   Clear
6:51 AM 32.0 °F 23.0 °F 25.0 °F 75% 29.83 in 10.0 mi ESE 11.5 mph - N/A   Clear
7:51 AM 33.1 °F 27.7 °F 26.1 °F 75% 29.82 in 10.0 mi ESE 5.8 mph - N/A   Clear
8:51 AM 37.9 °F 32.7 °F 28.0 °F 68% 29.81 in 10.0 mi SE 6.9 mph - N/A   Clear
12:51 PM 55.0 °F - 35.1 °F 47% 29.78 in 10.0 mi NW 3.5 mph - N/A   Clear
1:51 PM 57.0 °F - 35.1 °F 44% 29.78 in 10.0 mi Calm Calm - N/A   Clear
2:51 PM 55.9 °F - 35.1 °F 45% 29.80 in 10.0 mi WNW 6.9 mph - N/A   Clear
3:51 PM 48.0 °F - 35.1 °F 61% 29.86 in 10.0 mi WNW 8.1 mph - N/A   Clear
4:51 PM 44.1 °F 37.1 °F 33.1 °F 65% 29.91 in 10.0 mi WNW 15.0 mph - N/A   Clear
5:51 PM 42.1 °F 36.1 °F 30.9 °F 65% 29.96 in 10.0 mi WNW 10.4 mph - N/A   Partly Cloudy
6:51 PM 39.9 °F 35.8 °F 28.9 °F 65% 29.98 in 10.0 mi WNW 5.8 mph - N/A   Clear
7:51 PM 37.9 °F 30.9 °F 28.9 °F 70% 30.00 in 10.0 mi West 10.4 mph - N/A   Clear
8:51 PM 37.0 °F 29.8 °F 28.0 °F 70% 30.02 in 10.0 mi West 10.4 mph - N/A   Clear
9:51 PM 35.1 °F 29.3 °F 27.0 °F 72% 30.04 in 10.0 mi WNW 6.9 mph - N/A   Clear
10:51 PM 34.0 °F - 27.0 °F 75% 30.04 in 10.0 mi Calm Calm - N/A   Overcast
11:51 PM 33.1 °F 30.0 °F 27.0 °F 78% 30.06 in 10.0 mi WNW 3.5 mph - N/A   Mostly Cloudy